CW1459 Weather Reports


Display with metric or nautical units.
time (UTC)temp
F
wind
direction
speed
MPH
gust
MPH
rain 1hr
in
rain 24hr
in
rain mn
in
humidity
%
barometer
mb
20260831072342 71 86 0.0 2.0 0.00 0.00 0.00 92 1017.1
20260831071338 71 86 1.0 2.0 0.00 0.00 0.00 92 1017.1
20260831070339 71 86 1.0 2.0 0.00 0.00 0.00 92 1017.1
20260831065339 71 86 0.0 2.0 0.00 0.00 0.00 92 1017.4
20260831064321 71 86 1.0 2.0 0.00 0.00 0.00 92 1017.4
20260831063318 71 86 0.0 1.0 0.00 0.00 0.00 92 1017.5
20260831062318 72 86 0.0 3.0 0.00 0.00 0.00 92 1017.7
20260831061331 71 86 2.0 3.0 0.00 0.00 0.00 92 1017.7
20260831060358 72 86 0.0 2.0 0.00 0.00 0.00 92 1017.7
20260831055353 72 31 1.0 4.0 0.00 0.00 0.00 91 1017.9
20260831054330 72 176 2.0 3.0 0.00 0.00 0.00 91 1017.6
20260831053314 72 176 0.0 1.0 0.00 0.00 0.00 91 1017.5
20260831052332 72 176 0.0 0.0 0.00 0.00 0.00 91 1017.5
20260831051313 73 176 0.0 1.0 0.00 0.00 0.00 91 1017.5
20260831050336 73 176 0.0 2.0 0.00 0.00 0.00 91 1017.5
20260831045338 73 176 0.0 1.0 0.00 0.00 0.00 90 1017.5
20260831044358 73 176 0.0 1.0 0.00 0.00 0.00 90 1017.7
20260831043315 73 176 0.0 1.0 0.00 0.00 0.00 90 1017.8
20260831042313 73 176 0.0 1.0 0.00 0.00 0.00 90 1017.9
20260831041359 73 176 0.0 1.0 0.00 0.00 0.00 90 1017.9
20260831040333 73 176 0.0 1.0 0.00 0.00 0.00 89 1017.9
20260831035314 73 176 1.0 2.0 0.00 0.00 0.00 89 1017.9
20260831034336 73 176 0.0 0.0 0.00 0.00 0.00 89 1018.0
20260831033313 74 176 0.0 0.0 0.00 0.00 0.00 89 1018.1
20260831032332 74 176 1.0 2.0 0.00 0.00 0.00 88 1018.2
20260831031313 74 176 0.0 1.0 0.00 0.00 0.00 89 1018.3
20260831030333 74 176 0.0 1.0 0.00 0.00 0.00 88 1018.3
20260831025333 74 176 0.0 1.0 0.00 0.00 0.00 88 1018.2
20260831024338 75 176 0.0 1.0 0.00 0.00 0.00 88 1018.2
20260831023333 75 176 0.0 1.0 0.00 0.00 0.00 88 1018.1
20260831022322 75 176 0.0 0.0 0.00 0.00 0.00 87 1018.3
20260831021325 75 176 0.0 4.0 0.00 0.00 0.00 87 1018.3
20260831020329 75 134 2.0 5.0 0.00 0.00 0.00 87 1018.3
20260831015317 75 138 1.0 3.0 0.00 0.00 0.00 87 1018.3
20260831014313 76 221 0.0 1.0 0.00 0.00 0.00 87 1018.2
20260831013316 76 221 0.0 0.0 0.00 0.00 0.00 87 1018.2
20260831012323 76 221 0.0 1.0 0.00 0.00 0.00 87 1018.2
20260831011355 76 221 0.0 2.0 0.00 0.00 0.00 87 1018.2
20260831010313 76 221 0.0 1.0 0.00 0.00 0.00 86 1018.0
20260831005334 76 221 0.0 2.0 0.00 0.00 0.00 86 1017.6
20260831004316 76 221 0.0 2.0 0.00 0.00 0.00 84 1017.4
20260831003337 76 221 1.0 2.0 0.00 0.00 0.00 83 1017.3
20260831002318 77 221 1.0 2.0 0.00 0.00 0.00 82 1017.2
20260831001338 78 142 1.0 2.0 0.00 0.00 0.00 81 1017.0
20260831000355 78 138 1.0 5.0 0.00 0.00 0.00 79 1017.0
20260830235332 79 187 1.0 3.0 0.00 0.00 0.00 78 1016.8
20260830234312 80 165 2.0 4.0 0.00 0.00 0.00 77 1016.8
20260830233333 81 161 1.0 3.0 0.00 0.00 0.00 75 1016.8
20260830232319 82 161 1.0 5.0 0.00 0.00 0.00 75 1016.8
20260830231325 82 164 3.0 6.0 0.00 0.00 0.00 75 1016.9
20260830230332 83 169 2.0 5.0 0.00 0.00 0.00 74 1017.0
20260830225331 84 173 2.0 5.0 0.00 0.00 0.00 74 1017.1
20260830224336 84 185 4.0 7.0 0.00 0.00 0.00 73 1017.1
20260830223315 83 141 4.0 9.0 0.00 0.00 0.00 74 1017.1
20260830222318 84 128 4.0 9.0 0.00 0.00 0.00 73 1017.1
20260830221314 85 144 5.0 8.0 0.00 0.00 0.00 72 1017.0
20260830220321 85 143 4.0 7.0 0.00 0.00 0.00 71 1017.0
20260830215352 85 140 4.0 8.0 0.00 0.00 0.00 71 1017.0
20260830214319 86 140 4.0 10.0 0.00 0.00 0.00 71 1017.0
20260830213332 86 124 5.0 8.0 0.00 0.00 0.00 70 1016.9
20260830212336 85 148 3.0 8.0 0.00 0.00 0.00 70 1016.9
20260830211331 85 169 3.0 9.0 0.00 0.00 0.00 71 1016.9
20260830210330 85 163 1.0 8.0 0.00 0.00 0.00 72 1016.9
20260830205312 85 146 2.0 8.0 0.00 0.00 0.00 73 1017.0
20260830204327 84 351 2.0 4.0 0.00 0.00 0.00 76 1017.1
20260830203318 83 49 2.0 6.0 0.00 0.00 0.00 76 1017.2
20260830202331 84 5 4.0 8.0 0.00 0.00 0.00 76 1017.5
20260830201336 83 5 4.0 11.0 0.00 0.00 0.00 77 1017.5
20260830200329 82 148 0.0 3.0 0.00 0.00 0.00 76 1017.6
20260830195314 81 152 3.0 4.0 0.00 0.00 0.00 78 1017.5
20260830194334 81 157 2.0 7.0 0.00 0.00 0.00 79 1017.4
20260830193311 81 129 3.0 7.0 0.00 0.00 0.00 76 1017.1
20260830192311 83 178 5.0 8.0 0.00 0.00 0.00 73 1017.8
20260830191320 84 153 4.0 7.0 0.00 0.00 0.00 71 1017.9
20260830190311 85 213 5.0 9.0 0.00 0.00 0.00 67 1018.0
20260830185321 87 184 1.0 7.0 0.00 0.00 0.00 64 1018.1
20260830184320 88 233 4.0 7.0 0.00 0.00 0.00 64 1018.2
20260830183337 87 210 3.0 6.0 0.00 0.00 0.00 64 1018.4
20260830181317 86 128 3.0 7.0 0.00 0.00 0.00 68 1018.6
20260830180329 86 273 5.0 8.0 0.00 0.00 0.00 68 1018.9
20260830175324 86 163 5.0 9.0 0.00 0.00 0.00 68 1019.0
20260830174326 86 140 4.0 8.0 0.00 0.00 0.00 68 1019.0
20260830173332 85 173 3.0 7.0 0.00 0.00 0.00 69 1018.9
20260830172337 86 180 4.0 12.0 0.00 0.00 0.00 67 1019.2
20260830171400 86 189 6.0 9.0 0.00 0.00 0.00 70 1019.3
20260830170333 85 156 5.0 10.0 0.00 0.00 0.00 71 1019.5
20260830165327 85 184 4.0 10.0 0.00 0.00 0.00 72 1019.6
20260830164315 85 152 4.0 10.0 0.00 0.00 0.00 72 1019.6
20260830163348 84 157 6.0 14.0 0.00 0.00 0.00 73 1019.7
20260830162332 82 216 4.0 7.0 0.00 0.00 0.00 77 1019.9
20260830161335 81 175 5.0 7.0 0.00 0.00 0.00 76 1020.0
20260830160339 81 143 5.0 8.0 0.00 0.00 0.00 78 1020.1
20260830155317 80 149 3.0 7.0 0.00 0.00 0.00 78 1020.1
20260830154323 79 157 2.0 4.0 0.00 0.00 0.00 79 1020.2
20260830153326 79 157 2.0 5.0 0.00 0.00 0.00 77 1020.2
20260830152332 80 149 4.0 7.0 0.00 0.00 0.00 73 1020.2
20260830151339 81 162 5.0 9.0 0.00 0.00 0.00 74 1020.1
20260830150357 80 202 3.0 8.0 0.00 0.00 0.00 75 1020.1
20260830145318 80 215 4.0 9.0 0.00 0.00 0.00 77 1020.2
20260830144313 79 209 4.0 10.0 0.00 0.00 0.00 77 1020.1
20260830143324 79 215 5.0 8.0 0.00 0.00 0.00 75 1019.9
20260830142339 80 165 5.0 8.0 0.00 0.00 0.00 76 1019.9
20260830141313 79 209 4.0 8.0 0.00 0.00 0.00 77 1019.9
20260830140314 78 169 4.0 8.0 0.00 0.00 0.00 79 1019.9
20260830135337 76 104 4.0 8.0 0.00 0.00 0.00 82 1020.2
20260830134313 76 165 4.0 9.0 0.00 0.00 0.00 81 1020.2
20260830133349 76 199 3.0 8.0 0.00 0.00 0.00 81 1020.2
20260830132332 76 198 2.0 9.0 0.00 0.00 0.00 81 1020.4
20260830131328 76 191 6.0 10.0 0.00 0.00 0.00 83 1020.4
20260830130333 75 171 5.0 10.0 0.00 0.00 0.00 83 1020.4
20260830125337 75 146 6.0 12.0 0.00 0.00 0.00 84 1020.6
20260830124312 74 219 6.0 10.0 0.00 0.00 0.00 86 1020.7
20260830123328 73 209 4.0 11.0 0.00 0.00 0.00 87 1020.7
20260830122336 72 86 4.0 8.0 0.00 0.00 0.00 88 1020.8
20260830121336 72 150 3.0 9.0 0.00 0.00 0.00 88 1020.7
20260830120318 71 129 3.0 7.0 0.00 0.00 0.00 89 1020.8
20260830115331 70 175 2.0 5.0 0.00 0.00 0.00 90 1020.7
20260830114336 70 153 3.0 5.0 0.00 0.00 0.00 91 1020.6
20260830113325 69 171 2.0 6.0 0.00 0.00 0.00 91 1020.5
20260830112357 68 183 1.0 1.0 0.00 0.00 0.00 91 1020.6
20260830111314 68 183 0.0 1.0 0.00 0.00 0.00 90 1020.6
20260830110334 68 183 0.0 2.0 0.00 0.00 0.00 89 1020.6
20260830105335 68 183 0.0 2.0 0.00 0.00 0.00 89 1020.5
20260830104319 68 164 1.0 5.0 0.00 0.00 0.00 89 1020.4
20260830103336 69 155 1.0 5.0 0.00 0.00 0.00 88 1020.4
20260830102313 69 143 2.0 3.0 0.00 0.00 0.00 88 1020.4
20260830101312 69 139 2.0 4.0 0.00 0.00 0.00 88 1020.4
20260830100312 69 148 3.0 7.0 0.00 0.00 0.00 88 1020.3
20260830095312 69 173 4.0 7.0 0.00 0.00 0.00 88 1020.3
20260830094316 69 149 5.0 9.0 0.00 0.00 0.00 88 1020.4
20260830093346 69 161 4.0 7.0 0.00 0.00 0.00 88 1020.6
20260830092323 69 170 3.0 6.0 0.00 0.00 0.00 88 1020.7
20260830091336 70 161 2.0 7.0 0.00 0.00 0.00 88 1020.7
20260830090340 69 125 4.0 7.0 0.00 0.00 0.00 88 1020.6
20260830085342 69 162 3.0 7.0 0.00 0.00 0.00 87 1020.6
20260830084333 70 138 3.0 7.0 0.00 0.00 0.00 87 1020.6
20260830083330 70 165 3.0 6.0 0.00 0.00 0.00 86 1020.6
20260830082345 69 138 5.0 9.0 0.00 0.00 0.00 85 1020.7
20260830081316 70 163 2.0 7.0 0.00 0.00 0.00 83 1020.7
20260830080318 70 188 0.0 2.0 0.00 0.00 0.00 82 1020.9
20260830075321 70 165 1.0 3.0 0.00 0.00 0.00 82 1021.0
20260830074321 70 178 1.0 5.0 0.00 0.00 0.00 81 1021.0
20260830073316 70 165 2.0 5.0 0.00 0.00 0.00 80 1021.0